• In Austria
  • List of Countries
  • For 7 days
  • Water Temperature
  • Satellite Maps
  • Weather Map
  • News
  • Weather Widgets
  • user-avatar
    Login

    Hourly Weather Lubango

    Today, 24 September, Monday

    Time Temperature Precipitation Wind Pressure Humidity
    00:00 +16°C° 0 mm 1 mps 608 mmHg 66%
    01:00 +15°C° 0 mm 1 mps 608 mmHg 70%
    02:00 +15°C° 0 mm 1 mps 608 mmHg 70%
    03:00 +14°C° 0 mm 1 mps 607 mmHg 70%
    04:00 +14°C° 0 mm 1 mps 607 mmHg 70%
    05:00 +14°C° 0 mm 0 mps 608 mmHg 64%
    06:00 +15°C° 0 mm 0 mps 608 mmHg 58%
    07:00 +17°C° 0 mm 0 mps 609 mmHg 52%
    08:00 +22°C° 0 mm 1 mps 611 mmHg 42%
    09:00 +25°C° 0 mm 1 mps 612 mmHg 31%
    10:00 +28°C° 0 mm 2 mps 613 mmHg 21%
    11:00 +29°C° 0 mm 2 mps 613 mmHg 20%
    12:00 +30°C° 0 mm 2 mps 613 mmHg 18%
    13:00 +31°C° 0 mm 2 mps 612 mmHg 17%
    14:00 +30°C° 0 mm 3 mps 612 mmHg 20%
    15:00 +29°C° 0 mm 3 mps 611 mmHg 24%
    16:00 +28°C° 0 mm 4 mps 611 mmHg 27%
    17:00 +25°C° 0 mm 3 mps 610 mmHg 37%
    18:00 +21°C° 0 mm 3 mps 609 mmHg 47%
    19:00 +18°C° 0 mm 2 mps 609 mmHg 57%
    20:00 +18°C° 0 mm 2 mps 609 mmHg 62%
    21:00 +18°C° 0 mm 1 mps 609 mmHg 67%
    22:00 +16°C° 0 mm 1 mps 609 mmHg 71%
    23:00 +16°C° 0 mm 1 mps 609 mmHg 72%

    Tomorrow, 25 September, Tuesday

    Time Temperature Precipitation Wind Pressure Humidity
    00:00 +15°C° 0 mm 1 mps 609 mmHg 73%
    01:00 +14°C° 0 mm 0 mps 608 mmHg 75%
    02:00 +15°C° 0 mm 1 mps 608 mmHg 73%
    03:00 +15°C° 0 mm 1 mps 608 mmHg 72%
    04:00 +15°C° 0 mm 1 mps 608 mmHg 71%
    05:00 +15°C° 0 mm 1 mps 608 mmHg 69%
    06:00 +16°C° 0 mm 1 mps 609 mmHg 67%
    07:00 +16°C° 0 mm 1 mps 609 mmHg 66%
    08:00 +20°C° 0 mm 1 mps 610 mmHg 53%
    09:00 +23°C° 0 mm 1 mps 612 mmHg 41%
    10:00 +26°C° 0 mm 2 mps 613 mmHg 29%
    11:00 +27°C° 0 mm 2 mps 613 mmHg 26%
    12:00 +28°C° 0 mm 2 mps 613 mmHg 23%
    13:00 +30°C° 0 mm 2 mps 613 mmHg 20%
    14:00 +29°C° 0 mm 3 mps 612 mmHg 22%
    15:00 +28°C° 0 mm 3 mps 611 mmHg 24%
    16:00 +28°C° 0 mm 4 mps 610 mmHg 25%
    17:00 +25°C° 0 mm 3 mps 610 mmHg 34%
    18:00 +22°C° 0 mm 3 mps 609 mmHg 42%
    19:00 +19°C° 0 mm 2 mps 609 mmHg 50%
    20:00 +18°C° 0 mm 2 mps 609 mmHg 54%
    21:00 +17°C° 0 mm 2 mps 609 mmHg 58%
    22:00 +16°C° 0 mm 1 mps 609 mmHg 62%
    23:00 +16°C° 0 mm 1 mps 609 mmHg 65%

    Day after tomorrow, 26 September, Wednesday

    Time Temperature Precipitation Wind Pressure Humidity
    00:00 +15°C° 0 mm 1 mps 609 mmHg 68%
    01:00 +14°C° 0 mm 1 mps 608 mmHg 71%
    02:00 +14°C° 0 mm 1 mps 608 mmHg 71%
    03:00 +14°C° 0 mm 1 mps 608 mmHg 72%
    04:00 +13°C° 0 mm 1 mps 608 mmHg 72%
    05:00 +15°C° 0 mm 1 mps 608 mmHg 66%
    06:00 +16°C° 0 mm 1 mps 609 mmHg 61%
    07:00 +18°C° 0 mm 1 mps 610 mmHg 55%
    08:00 +21°C° 0 mm 1 mps 611 mmHg 44%
    09:00 +25°C° 0 mm 2 mps 613 mmHg 32%
    10:00 +28°C° 0 mm 2 mps 614 mmHg 21%
    11:00 +29°C° 0 mm 2 mps 613 mmHg 19%
    12:00 +31°C° 0 mm 2 mps 613 mmHg 17%
    13:00 +32°C° 0 mm 2 mps 613 mmHg 14%
    14:00 +31°C° 0 mm 3 mps 612 mmHg 16%
    15:00 +30°C° 0 mm 3 mps 611 mmHg 18%
    16:00 +30°C° 0 mm 4 mps 610 mmHg 19%
    17:00 +27°C° 0 mm 4 mps 610 mmHg 27%
    18:00 +24°C° 0 mm 3 mps 609 mmHg 34%
    19:00 +20°C° 0 mm 3 mps 609 mmHg 42%
    20:00 +19°C° 0 mm 2 mps 609 mmHg 46%
    21:00 +19°C° 0 mm 1 mps 609 mmHg 50%
    22:00 +16°C° 0 mm 1 mps 609 mmHg 54%
    23:00 +16°C° 0 mm 1 mps 609 mmHg 55%

    27 September, Thursday

    Time Temperature Precipitation Wind Pressure Humidity
    00:00 +15°C° 0 mm 1 mps 608 mmHg 55%
    01:00 +15°C° 0 mm 1 mps 608 mmHg 56%
    02:00 +15°C° 0 mm 1 mps 608 mmHg 55%
    03:00 +14°C° 0 mm 1 mps 607 mmHg 53%
    04:00 +13°C° 0 mm 0 mps 607 mmHg 52%
    05:00 +16°C° 0 mm 1 mps 608 mmHg 46%
    06:00 +18°C° 0 mm 1 mps 609 mmHg 40%
    07:00 +19°C° 0 mm 1 mps 610 mmHg 35%
    08:00 +23°C° 0 mm 1 mps 612 mmHg 28%
    09:00 +26°C° 0 mm 2 mps 613 mmHg 20%
    10:00 +30°C° 0 mm 3 mps 614 mmHg 13%
    11:00 +31°C° 0 mm 3 mps 614 mmHg 12%
    12:00 +33°C° 0 mm 3 mps 613 mmHg 11%
    13:00 +34°C° 0 mm 3 mps 613 mmHg 10%
    14:00 +33°C° 0 mm 3 mps 612 mmHg 12%
    15:00 +32°C° 0 mm 4 mps 611 mmHg 13%
    16:00 +32°C° 0 mm 4 mps 610 mmHg 14%
    17:00 +27°C° 0 mm 4 mps 610 mmHg 20%
    18:00 +24°C° 0 mm 3 mps 609 mmHg 26%
    19:00 +20°C° 0 mm 2 mps 608 mmHg 32%
    20:00 +19°C° 0 mm 2 mps 609 mmHg 34%
    21:00 +19°C° 0 mm 1 mps 609 mmHg 37%
    22:00 +18°C° 0 mm 1 mps 609 mmHg 40%
    23:00 +16°C° 0 mm 1 mps 608 mmHg 40%

    28 September, Friday

    Time Temperature Precipitation Wind Pressure Humidity
    00:00 +16°C° 0 mm 1 mps 608 mmHg 41%
    01:00 +15°C° 0 mm 1 mps 608 mmHg 41%
    02:00 +15°C° 0 mm 1 mps 608 mmHg 41%
    03:00 +15°C° 0 mm 1 mps 607 mmHg 40%
    04:00 +15°C° 0 mm 1 mps 607 mmHg 40%
    05:00 +17°C° 0 mm 2 mps 608 mmHg 35%
    06:00 +18°C° 0 mm 2 mps 609 mmHg 30%
    07:00 +19°C° 0 mm 2 mps 610 mmHg 26%
    08:00 +24°C° 0 mm 3 mps 611 mmHg 21%
    09:00 +27°C° 0 mm 4 mps 612 mmHg 16%
    10:00 +32°C° 0 mm 4 mps 613 mmHg 11%
    11:00 +33°C° 0 mm 4 mps 613 mmHg 10%
    12:00 +34°C° 0 mm 4 mps 613 mmHg 9%
    13:00 +36°C° 0 mm 4 mps 612 mmHg 8%
    14:00 +35°C° 0 mm 4 mps 612 mmHg 10%
    15:00 +33°C° 0 mm 4 mps 611 mmHg 13%
    16:00 +32°C° 0 mm 4 mps 610 mmHg 15%
    17:00 +28°C° 0 mm 3 mps 609 mmHg 24%
    18:00 +24°C° 0 mm 3 mps 609 mmHg 32%
    19:00 +20°C° 0 mm 2 mps 608 mmHg 41%
    20:00 +19°C° 0 mm 2 mps 608 mmHg 46%
    21:00 +18°C° 0 mm 1 mps 608 mmHg 50%
    22:00 +16°C° 0 mm 1 mps 608 mmHg 55%
    23:00 +16°C° 0 mm 1 mps 608 mmHg 55%

    29 September, Saturday

    Time Temperature Precipitation Wind Pressure Humidity
    00:00 +16°C° 0 mm 1 mps 607 mmHg 54%
    01:00 +15°C° 0 mm 1 mps 607 mmHg 54%
    02:00 +15°C° 0 mm 1 mps 607 mmHg 54%
    03:00 +15°C° 0 mm 1 mps 607 mmHg 54%
    04:00 +15°C° 0 mm 1 mps 607 mmHg 53%
    05:00 +16°C° 0 mm 1 mps 607 mmHg 49%
    06:00 +18°C° 0 mm 1 mps 608 mmHg 44%
    07:00 +19°C° 0 mm 1 mps 609 mmHg 39%
    08:00 +22°C° 0 mm 1 mps 610 mmHg 33%
    09:00 +25°C° 0 mm 2 mps 611 mmHg 26%
    10:00 +28°C° 0 mm 2 mps 613 mmHg 20%
    11:00 +29°C° 0 mm 3 mps 612 mmHg 19%
    12:00 +31°C° 0 mm 3 mps 612 mmHg 17%
    13:00 +33°C° 0 mm 3 mps 612 mmHg 16%
    14:00 +31°C° 0 mm 3 mps 611 mmHg 19%
    15:00 +30°C° 0 mm 3 mps 611 mmHg 22%
    16:00 +29°C° 0 mm 3 mps 610 mmHg 25%
    17:00 +26°C° 0 mm 3 mps 610 mmHg 34%
    18:00 +22°C° 0 mm 3 mps 610 mmHg 44%
    19:00 +20°C° 0 mm 2 mps 610 mmHg 54%
    20:00 +19°C° 0 mm 2 mps 610 mmHg 59%
    21:00 +19°C° 0 mm 1 mps 610 mmHg 65%
    22:00 +16°C° 0 mm 1 mps 610 mmHg 71%
    23:00 +16°C° 0 mm 1 mps 609 mmHg 73%
    Show more